Regional Weather Roundup
Issued by NWS

Home | Current Version | Previous Version | Graphics & Text | Print | Product List | Glossary On
Versions: 1 2 3 4 5 6 7 8 9 10 11 12 13 14 15 16 17 18 19 20 21 22 23 24 25 26 27 28 29 30 31 32 33 34 35 36 37 38 39 40 41 42 43 44 45 46 47 48 49 50
763
ASUS45 KABQ 261210
RWRNM
NEW MEXICO REGIONAL WEATHER ROUNDUP
NATIONAL WEATHER SERVICE ALBUQUERQUE NM
500 AM MST SUN FEB 26 2017

NOTE: "FAIR" MEANS FEW OR NO CLOUDS BELOW 12,000 FEET AGL WITH NO
       SIGNIFICANT WEATHER OR OBSTRUCTIONS TO VISION.

      THIS PRODUCT IS RELEASED AS TWO VERSIONS.  ONE VERSION NEAR
      THE TOP OF THE HOUR CONTAINING PRELIMINARY DATA FROM ALBUQUERQUE
      AND OTHER STATIONS.  A FINAL VERSION WITH ADDITIONAL DATA IS
      ISSUED ABOUT 10 MINUTES AFTER THE HOUR.

NMZ501-503-504-510>518-261300-
NORTHWEST PLATEAU/NORTHCENTRAL MOUNTAINS

CITY           SKY/WX    TMP DP  RH WIND       PRES   REMARKS
FARMINGTON     FAIR      21  13  71 E3        29.88S
6HR MIN TEMP:  21; 6HR MAX TEMP:  31;

LOS ALAMOS     MOCLDY    28  15  56 W15       29.87R WCI  17
SANTA FE       CLOUDY    28  10  46 W5        29.87R WCI  23
6HR MIN TEMP:  22; 6HR MAX TEMP:  29;

TAOS           FAIR      18   0  45 CALM      29.86R
ANGEL FIRE     CLOUDY    22  10  61 W8        29.82R WCI  12

$$
NMZ402-403-502-505>509-261300-
WESTCENTRAL MOUNTAINS/SOUTHWEST MOUNTAINS

CITY           SKY/WX    TMP DP  RH WIND       PRES   REMARKS
GALLUP         CLOUDY    28  24  85 SW7       29.94R WCI  21
6HR MIN TEMP:  28; 6HR MAX TEMP:  36; 6HR PCP: TRACE;

GRANTS         CLOUDY    29  20  69 N7        29.93R WCI  22
SILVER CITY    MOCLDY    37  10  32 NW10      29.94S WCI  29

$$
NMZ407-409-411-412-261300-
SOUTHERN DESERTS

CITY           SKY/WX    TMP DP  RH WIND       PRES   REMARKS
DEMING         MOCLDY    39  17  41 W8        29.92F WCI  33
6HR MIN TEMP:  36; 6HR MAX TEMP:  43;

LAS CRUCES     CLOUDY    41  10  27 W5        29.93S
HOLLOMAN AFB   CLOUDY    53   4  14 SW6       29.94S
ALAMOGORDO     MOCLDY    48  10  21 S10       29.91F
T OR C         FAIR      37   5  26 VRB6      29.90R WCI  32
6HR MIN TEMP:  35; 6HR MAX TEMP:  47;


$$
NMZ519>523-261300-
CENTRAL VALLEYS/CENTRAL HIGHLANDS

CITY           SKY/WX    TMP DP  RH WIND       PRES   REMARKS
ALBUQUERQUE    MOCLDY    36  10  34 W6        29.91R WCI  31
6HR MIN TEMP:  34; 6HR MAX TEMP:  42;

DOUBLE EAGLE   FAIR      28  14  56 SW6       29.91R WCI  21
MORIARTY ARPT  CLOUDY    33  10  38 W10       29.88S WCI  25
6HR MIN TEMP:  29; 6HR MAX TEMP:  38;

CLINES CORNERS CLOUDY    29   9  43 W17       29.85R WCI  17
6HR MIN TEMP:  29; 6HR MAX TEMP:  33;

BELEN          FAIR      30   7  37 NE6       29.91R WCI  24
6HR MIN TEMP:  30; 6HR MAX TEMP:  38;

SOCORRO        CLOUDY    43   6  21 NW16      29.89R
6HR MIN TEMP:  36; 6HR MAX TEMP:  47;


$$
NMZ524>526-539-540-261300-
SOUTHCENTRAL MOUNTAINS

CITY           SKY/WX    TMP DP  RH WIND       PRES   REMARKS
RUIDOSO        CLOUDY    39   1  20 SW16G22   29.90S WCI  30

$$
NMZ527>531-261300-
NORTHEAST HIGHLANDS/NORTHEAST PLAINS

CITY           SKY/WX    TMP DP  RH WIND       PRES   REMARKS
LAS VEGAS      FAIR      24   7  48 SW9       29.81R WCI  14
6HR MIN TEMP:  22; 6HR MAX TEMP:  30;

RATON          FAIR      25   2  37 SW7       29.78S WCI  17
6HR MIN TEMP:  16; 6HR MAX TEMP:  28;

CLAYTON        FAIR      27   4  37 N3        29.80R
6HR MIN TEMP:  22; 6HR MAX TEMP:  42;


$$
NMZ532>537-261300-
EASTCENTRAL PLAINS

CITY           SKY/WX    TMP DP  RH WIND       PRES   REMARKS
TUCUMCARI      FAIR      32  16  51 W10       29.81R WCI  24
6HR MIN TEMP:  31; 6HR MAX TEMP:  41;

CANNON AFB     FAIR      38  14  37 NW12      29.82R WCI  30
6HR MIN TEMP:  30; 6HR MAX TEMP:  38;

CLOVIS AIRPORT FAIR      32  16  51 W9        29.82R WCI  24

$$
NMZ028-029-538-261300-
SOUTHEAST PLAINS

CITY           SKY/WX    TMP DP  RH WIND       PRES   REMARKS
ROSWELL        FAIR      32  13  45 NW3         N/A
6HR MIN TEMP:  32; 6HR MAX TEMP:  46;

ARTESIA        FAIR      36  18  48 S3        29.85R
CARLSBAD       FAIR      36  25  64 S8        29.84R WCI  30
6HR MIN TEMP:  33; 6HR MAX TEMP:  43;

HOBBS          FAIR      32  27  80 CALM      29.86S


$$




USA.gov is the U.S. government's official web portal to all federal, state and local government web resources and services.